Location: Arrowhead Springs
(34.1867°N, 117.2617°W)
Time: 15:42:07
(UTC+00:00)

Cosmos 1707 - Pass Details

Date: 13 April 2024
Orbit: 476 x 487 km, 82.5° (Epoch: 19 May)

Event Time Altitude Azimuth Distance (km) Brightness Sun altitude
Rises 12:09:12 0° 169° (S) 2,531 6.1 -14.8°
Reaches altitude 10° 12:11:22 10° 161° (SSE) 1,659 5.2 -14.3°
Maximum altitude 12:14:45 37° 92° (E) 766 4.1 -13.7°
Drops below altitude 10° 12:18:10 10° 24° (NNE) 1,681 6.0 -13.0°
Sets 12:20:22 0° 16° (NNE) 2,570 6.8 -12.6°
